Houlton, ME

10:02 PM EDT on August 23, 2017 (GMT -0400)
Houlton International

Weather History for KHUL - January, 2013

Change the Weather History Date:

Tuesday, January 22, 2013

  Actual Average Record
Temperature  
Mean Temperature -8 °F 11 °F  
Max Temperature 3 °F 22 °F 45 °F (1957)
Min Temperature -19 °F 0 °F -23 °F (2012)
Degree Days  
Heating Degree Days 73 54  
Month to date heating degree days 1121 1170  
Since 1 July heating degree days 4310 4690  
Cooling Degree Days 0 0  
Month to date cooling degree days 0 0  
Year to date cooling degree days 0 0  
Moisture  
Dew Point -15 °F    
Average Humidity 65    
Maximum Humidity 81    
Minimum Humidity 49    
Precipitation  
Precipitation 0.00 in 0.10 in 0.44 in (1995)
Month to date precipitation 0.33 2.05  
Year to date precipitation 0.33 2.05  
Sea Level Pressure  
Sea Level Pressure 29.86 in    
Wind  
Wind Speed 4 mph (North)    
Max Wind Speed 14 mph    
Max Gust Speed 18 mph    
Visibility 10 miles    
Events      
T = Trace of Precipitation, MM = Missing Value Source: NWS Daily Summary

Daily Weather History Graph

Daily Weather History Graph

Search for Another Location

Airport or City:

Trip Planner

Search our weather history database for the weather conditions in past years. The results will help you decide how hot, cold, wet, or windy it might be!

Date:

Astronomy

Jan. 22, 2013 Rise Set
Actual Time 7:04 AM EST 4:22 PM EST
Civil Twilight 6:31 AM EST 4:54 PM EST
Nautical Twilight 5:54 AM EST 5:31 PM EST
Astronomical Twilight 5:19 AM EST 6:07 PM EST
Moon 12:39 PM EST (1/22) 3:24 AM EST (1/22)
Length of Visible Light 10h 23m
Length of Day
9h 17m
Waxing Gibbous, 82% of the Moon is Illuminated
Jan 22
Waxing Gibbous
Jan 26
Full
Feb 3
Last Quarter
Feb 10
New
Feb 17
First Quarter

Hourly Weather History & Observations

Time (EST) Temp. Windchill Dew Point Humidity Pressure Visibility Wind Dir Wind Speed Gust Speed Precip Events Conditions
12:53 AM 1.0 °F -8.7 °F -9.9 °F 60% 29.90 in 10.0 mi NNE 4.6 mph - N/A   Partly Cloudy
1:53 AM -4.0 °F - -11.9 °F 69% 29.87 in 10.0 mi Calm Calm - N/A   Clear
2:53 AM -11.9 °F - -17.0 °F 78% 29.87 in 10.0 mi Calm Calm - N/A   Clear
3:53 AM -8.0 °F -16.9 °F -14.1 °F 75% 29.85 in 10.0 mi North 3.5 mph - N/A   Clear
4:53 AM -14.1 °F - -20.0 °F 75% 29.87 in 10.0 mi Calm Calm - N/A   Clear
5:53 AM -14.1 °F - -18.9 °F 79% 29.88 in 10.0 mi Calm Calm - N/A   Clear
6:53 AM -17.0 °F -27.2 °F -24.0 °F 70% 29.88 in 10.0 mi North 3.5 mph - N/A   Mostly Cloudy
7:53 AM -11.9 °F -29.9 °F -18.0 °F 74% 29.88 in 10.0 mi NNE 9.2 mph - N/A   Mostly Cloudy
8:53 AM -7.1 °F -23.9 °F -15.0 °F 68% 29.88 in 10.0 mi North 9.2 mph - N/A   Clear
9:53 AM -4.0 °F -21.2 °F -13.0 °F 65% 29.87 in 10.0 mi North 10.4 mph - N/A   Clear
10:53 AM -0.9 °F -16.4 °F -13.0 °F 57% 29.84 in 10.0 mi North 9.2 mph - N/A   Scattered Clouds
11:53 AM -0.0 °F -17.1 °F -13.0 °F 54% 29.81 in 10.0 mi North 11.5 mph - N/A   Mostly Cloudy
12:53 PM 1.0 °F -14.9 °F -14.1 °F 49% 29.80 in 10.0 mi North 10.4 mph - N/A   Clear
1:53 PM 1.9 °F -10.6 °F -14.1 °F 47% 29.80 in 10.0 mi NNE 6.9 mph - N/A   Clear
2:53 PM 1.0 °F -10.3 °F -14.1 °F 49% 29.81 in 10.0 mi North 5.8 mph - N/A   Scattered Clouds
3:53 PM 1.0 °F - -14.1 °F 49% 29.83 in 10.0 mi Calm Calm - N/A   Clear
4:53 PM -5.1 °F - -15.0 °F 62% 29.85 in 10.0 mi Calm Calm - N/A   Mostly Cloudy
5:53 PM -9.0 °F - -17.0 °F 68% 29.86 in 10.0 mi Calm Calm - N/A   Overcast
6:53 PM -8.0 °F - -16.1 °F 68% 29.88 in 10.0 mi Calm Calm - N/A   Overcast
7:53 PM -11.0 °F - -17.0 °F 75% 29.88 in 10.0 mi Calm Calm - N/A   Overcast
8:53 PM -13.0 °F - -20.0 °F 71% 29.88 in 10.0 mi Calm Calm - N/A   Mostly Cloudy
9:53 PM -5.1 °F -15.8 °F -15.0 °F 62% 29.88 in 10.0 mi WSW 4.6 mph - N/A   Overcast
10:53 PM -2.9 °F -13.3 °F -13.0 °F 62% 29.88 in 10.0 mi West 4.6 mph - N/A   Overcast
11:53 PM -0.9 °F -11.0 °F -11.9 °F 60% 29.88 in 10.0 mi NW 4.6 mph - N/A   Partly Cloudy